Simultaneous Nadir Overpasses (SNOs) Predictions

Prediction of SNOs between TERRA and METOP-C Satellite Orbit:

Table of predicted SNOs for the next 14.0 days since TLE Epoch: 10/10/2025
Index Date (TERRA) Time (TERRA) Lat,Lon (TERRA) SZA (TERRA ) Date (METOP-C) Time (METOP-C) Lat,Lon (METOP-C) SZA (METOP-C ) Distance(km) Time Diff (sec)
1 10/11/2025 15:35:49 -78.14,-137.50 80.86 10/11/2025 15:35:26 -78.14,-137.47 80.88 0.71 23
2 10/11/2025 16:25:00 77.77, 31.78 99.54 10/11/2025 16:25:59 77.78, 31.70 99.57 1.99 59
3 10/14/2025 04:25:16 -78.37, 29.04 80.16 10/14/2025 04:24:25 -78.38, 28.99 80.21 1.51 51
4 10/14/2025 05:14:25 77.92,-161.23 100.34 10/14/2025 05:14:55 77.91,-161.16 100.38 1.73 30
5 10/16/2025 18:03:52 78.13, 5.46 101.05 10/16/2025 18:03:54 78.12, 5.51 101.07 1.19 2
6 10/19/2025 06:53:18 78.31, 172.22 101.78 10/19/2025 06:52:52 78.30, 172.33 101.78 2.71 26
7 10/19/2025 07:42:30 -78.01, -18.76 77.91 10/19/2025 07:43:25 -78.02, -18.86 77.88 2.59 55
8 10/21/2025 19:42:45 78.56, -21.37 102.41 10/21/2025 19:41:52 78.56, -21.37 102.37 0.15 53



Historial Predications of SNOs between TERRA and METOP-C
